EW4942 Weather Reports


time (UTC)temp
F
wind
direction
speed
knots
gust
knots
rain 1hr
in
rain 24hr
in
rain mn
in
humidity
%
barometer
mb
20260503200033 79 199 0.9 5.2 0.00 0.00 0.00 43 1013.6
20260503194530 78 211 0.0 4.3 0.00 0.00 0.00 44 1013.8
20260503193029 77 131 0.9 5.2 0.00 0.00 0.00 47 1014.0
20260503191526 78 103 0.0 5.2 0.00 0.00 0.00 49 1014.1
20260503190029 76 126 0.9 5.2 0.00 0.00 0.00 48 1014.2
20260503184527 76 124 2.6 6.1 0.00 0.00 0.00 48 1014.3
20260503183020 76 103 0.0 5.2 0.00 0.00 0.00 48 1014.4
20260503181518 75 166 0.0 7.8 0.00 0.00 0.00 52 1014.4
20260503180026 74 155 1.7 5.2 0.00 0.00 0.00 49 1014.4
20260503174520 74 124 0.0 5.2 0.00 0.00 0.00 51 1014.6
20260503173015 74 127 0.9 4.3 0.00 0.00 0.00 48 1014.6
20260503171517 74 121 0.0 0.0 0.00 0.00 0.00 47 1014.7
20260503081509 59 219 0.0 2.6 0.00 0.00 0.00 61 1015.4
20260503071505 60 269 0.0 2.6 0.00 0.00 0.00 59 1015.4
20260503060123 64 252 0.0 10.4 0.00 0.00 0.00 54 1015.2
20260503054600 64 252 0.9 5.2 0.00 0.00 0.00 53 1015.2
20260503053057 65 221 0.0 5.2 0.00 0.00 0.00 53 1015.3
20260503051656 65 153 0.0 4.3 0.00 0.00 0.00 51 1015.4
20260503044555 66 271 0.9 4.3 0.00 0.00 0.00 49 1015.3
20260503043057 67 99 0.0 7.0 0.00 0.00 0.00 48 1015.2
20260503041554 68 249 0.0 5.2 0.00 0.00 0.00 46 1015.1
20260503040055 68 275 0.0 3.5 0.00 0.00 0.00 44 1015.0
20260503034555 68 239 0.0 2.6 0.00 0.00 0.00 45 1014.8
20260503033059 69 281 0.0 0.0 0.00 0.00 0.00 44 1014.7
20260503031552 70 278 0.0 0.0 0.00 0.00 0.00 43 1014.5
20260503030051 71 280 0.0 4.3 0.00 0.00 0.00 41 1014.5
20260503024552 72 252 0.0 0.9 0.00 0.00 0.00 41 1014.4
20260503023051 73 313 0.0 0.0 0.00 0.00 0.00 39 1014.4
20260503021553 75 258 0.0 3.5 0.00 0.00 0.00 37 1014.4
20260503020049 75 288 0.0 2.6 0.00 0.00 0.00 38 1014.5
20260503014601 76 215 0.0 0.0 0.00 0.00 0.00 39 1014.5
20260503013046 77 277 0.0 0.0 0.00 0.00 0.00 36 1014.6
20260503011552 78 277 0.0 1.7 0.00 0.00 0.00 36 1014.7
20260503010042 79 84 0.0 0.0 0.00 0.00 0.00 33 1014.6
20260503004540 81 84 0.0 3.5 0.00 0.00 0.00 31 1014.7
20260503003041 82 241 0.0 0.9 0.00 0.00 0.00 31 1014.8
20260503001537 81 241 0.0 0.0 0.00 0.00 0.00 30 1014.9
20260503000038 82 241 0.0 0.0 0.00 0.00 0.00 29 1015.0
20260502234537 82 241 0.0 0.9 0.00 0.00 0.00 34 1015.1
20260502233031 81 241 0.0 3.5 0.00 0.00 0.00 32 1015.2
20260502231531 82 241 0.0 0.9 0.00 0.00 0.00 32 1015.4
20260502230030 82 241 0.0 0.9 0.00 0.00 0.00 34 1015.5
20260502224524 82 240 0.0 3.5 0.00 0.00 0.00 36 1015.7
20260502223023 81 230 0.0 3.5 0.00 0.00 0.00 35 1015.9
20260502221521 81 73 0.0 4.3 0.00 0.00 0.00 39 1016.0
20260502220022 81 121 0.0 0.9 0.00 0.00 0.00 40 1016.2
20260502214518 81 120 0.0 0.9 0.00 0.00 0.00 36 1016.3
20260502213033 81 120 0.0 5.2 0.00 0.00 0.00 37 1016.3
20260502211519 81 279 0.0 2.6 0.00 0.00 0.00 38 1016.4
20260502210014 80 169 1.7 5.2 0.00 0.00 0.00 35 1016.7
20260502204511 80 232 0.0 0.9 0.00 0.00 0.00 37 1016.7
20260502203008 79 258 0.0 5.2 0.00 0.00 0.00 38 1016.9
20260502201522 78 176 0.0 4.3 0.00 0.00 0.00 40 1017.1